Location: *
(49.3500°N, 12.6000°E)
Time: 19:24:26
(UTC+00:00)

Cosmos 2058 - Pass Details

Date: 18 October 2019
Orbit: 563 x 583 km, 82.5° (Epoch: 12 November)

Event Time Altitude Azimuth Distance (km) Brightness Sun altitude
Rises 18:55:22 0° 345° (NNW) 2,821 6.9 -26.8°
Reaches altitude 10° 18:57:38 10° 339° (NNW) 1,916 6.0 -27.1°
Enters shadow 19:01:36 46° 270° (W) 789 3.9 -27.7°
